Location: Unspecified
(0.0000°N, 0.0000°E)
Time: 04:25:00
(UTC+00:00)

deb Delta 104 - Pass Details

Date: 07 March 2026
Orbit: 1339 x 1584 km, 100.8° (Epoch: 15 April)

Event Time Altitude Azimuth Distance (km) Brightness Sun altitude
Exits shadow 20:47:45 22° 172° (S) 2,928 ? -39.0°
Drops below altitude 10° 20:50:30 10° 180° (S) 3,784 ? -39.7°
Sets 20:53:30 0° 184° (S) 4,776 ? -40.5°
